Location: Fort Worth, Tx
(32.7431°N, 97.3695°W)
Time: 14:01:35
(UTC-04:00)

Vanguard 1 Rocket - Pass Details

Date: 01 March 2024
Orbit: 652 x 4220 km, 34.3° (Epoch: 11 April)

Event Time Altitude Azimuth Distance (km) Brightness Sun altitude
Exits shadow 04:43:13 13° 196° (SSW) 7,033 11.6 -40.9°
Maximum altitude 05:03:42 37° 141° (SE) 5,225 11.2 -36.8°
Drops below altitude 10° 05:21:35 10° 83° (E) 6,012 12.4 -33.2°
Sets 05:25:54 0° 75° (ENE) 6,605 12.9 -32.3°
